Regional Weather Roundup
Issued by NWS Charleston, SC

Current Version | Previous Version | Graphics & Text | Print | Product List | Glossary On
Versions: 1 2 3 4 5 6 7 8 9 10 11 12 13 14 15 16 17 18 19 20 21 22 23 24 25 26 27 28 29 30 31 32 33 34 35 36 37 38 39 40 41 42 43 44 45 46 47 48 49 50
666
ASUS42 KCHS 281128
RWRCHS

REGIONAL WEATHER ROUNDUP
NATIONAL WEATHER SERVICE CHARLESTON SC
700 AM EDT SUN AUG 28 2016

NOTE: "FAIR" INDICATES FEW OR NO CLOUDS BELOW 12,000 FEET WITH NO
SIGNIFICANT WEATHER AND/OR OBSTRUCTIONS TO VISIBILITY.

NOT ALL STATIONS ARE QUALITY CONTROLLED. USE DATA WITH CAUTION...
ESPECIALLY DEWPOINT OBSERVATIONS.

SCZ027-030-031-034>040-042>050-281200-
...SOUTHEAST SOUTH CAROLINA...

CITY           SKY/WX    TMP DP  RH WIND       PRES   REMARKS
N CHARLESTON   PTCLDY    75  72  90 NE6       30.09R
WATERFRONT PRK   N/A     78  76  94 NE8       30.06R
MOUNT PLEASANT FAIR      75  73  94 CALM      30.10R
JOHNS ISLAND   FAIR      77  75  94 CALM      30.09R
PINOPOLIS        N/A     79  75  89 E7        30.02R
MONCKS CORNER  FAIR      72  70  94 NE5       30.10R
SUMMERVILLE    FAIR      73  73 100 CALM      30.11R
BEAUFORT MCAS  CLEAR     75  72  90 N6        30.09R
BEAUFORT ARPT  FAIR      79  73  83 NE8       30.09R FOG
HILTON HEAD IS PTCLDY    79  77  94 N6        30.08R
WALTERBORO     SUNNY     73  73 100 CALM      30.12R
ALLENDALE      CLOUDY    75  72  88 CALM      30.11R

...SOUTHERN MIDLANDS AND PEE DEE...

CITY           SKY/WX    TMP DP  RH WIND       PRES   REMARKS
GEORGETOWN     FAIR      72  72 100 CALM      30.11R
KINGSTREE      FAIR      68  64  88 CALM      30.12R
ORANGEBURG     PTCLDY    75  71  87 CALM      30.11R
BARNWELL       NOT AVBL
AIKEN          FAIR      70  66  88 CALM      30.16R
MANNING        FAIR      70  70 100 CALM      30.12R
COLUMBIA       PTCLDY    76  70  82 N3        30.11R
SUMTER         PTCLDY    74  71  91 N3        30.10R
FLORENCE       CLEAR     74  71  91 N5        30.12R
MYRTLE BEACH   CLEAR     77  66  69 NE8       30.11R
N MYRTLE BEACH PTCLDY    76  74  93 NE7       30.10R

$$

GAZ063-065-086>088-099>101-113>116-118-119-134>141-150-281200-
...SOUTHEAST GEORGIA...

CITY           SKY/WX    TMP DP  RH WIND       PRES   REMARKS
SAVANNAH ARPT  PTCLDY    74  72  93 N7        30.09R
HUNTER AAF     PTCLDY    76  76 100 NE3       30.06R
FORT STEWART   CLEAR     74  72  94 CALM      30.06R FOG
STATESBORO     CLEAR     73  73  97 CALM      30.10R
SYLVANIA       NOT AVBL
CLAXTON        FAIR      71  71 100 CALM      30.10R FOG

...CSRA...CENTRAL AND FAR SOUTHEAST GEORGIA...

CITY           SKY/WX    TMP DP  RH WIND       PRES   REMARKS
THOMSON        MOCLDY    71  71  99 MISG      30.18R
AUGUSTA-BUSH   PTCLDY    72  70  93 CALM      30.11R
AUGUSTA-DANIEL CLEAR     77  70  79 NE3       30.12R
SWAINSBORO     FAIR      72  70  94 NE6       30.11S
VIDALIA        PTCLDY    73  73 100 E6        30.10R
EASTMAN        FAIR      74  74 100 CALM      30.12R
HAZLEHURST     FAIR      74  74 100 CALM      30.08R
ALMA           CLEAR     73  73 100 NE3       30.07R
WAYCROSS         N/A     75  75 100 E3        30.07R FOG
JESUP          FAIR      73  73 100 CALM      30.08R
BAXLEY         FAIR      73  73 100 CALM      30.08R
BRUNSWICK      CLEAR     73  73 100 CALM      30.07R
SAINT SIMONS   PTCLDY    80  72  76 E8        30.05R

$$

SCZ027-028-034-036>038-045-046-048>050-GAZ119-141-281200-
...LAKE AND SUPPLEMENTAL COASTAL OBSERVATIONS...

STATION/POSITION TIME  TEMP    WIND        PRES    WAVE   SWELL
                       AIR SEA DIR/SP/G            HT/PER HT/PER/DIR
                 (UTC) (F)     (DEG/KT/KT) (MB)    (FT/S) (FT/S/D)
WINYAH BAY       1045   76      10/  5     1018.0S
LAKE MURRAY      1100   75      CALM  /  2 1019.6R
ACE BASIN NERRS  1000   74        CALM     1018.0S
FORT PULASKI     1100   83 85   50/ 12/ 14 1018.8R
SAPELO ISLAND    1100   81      60/  6     1018.0R

$$

ANZ835-935-AMZ111-154-330-350-352-354-370-450-454-472-281200-
...C-MAN AND BUOY OBSERVATIONS...

STATION/POSITION TIME  TEMP    WIND        PRES    WAVE   SWELL
                       AIR SEA DIR/SP/G            HT/PER HT/PER/DIR
                 (UTC) (F)     (DEG/KT/KT) (MB)    (FT/S) (FT/S/D)
BUOY 41004       1050   83 84   50/ 14/ 16 1017.8R   4/ 9   3/130/ 9
BUOY 41008       1050   83 85   70/ 14/ 16 1017.1R   4/ 9   2/120/ 9
FOLLY BEACH CMAN 1100   80      30/ 10/ 11 1018.9R
CAPERS NEARSHORE 1108   81 84   40/ 12/ 14 1018.5R
FRIPP NEARSHORE  1108   83 86   90/ 12/ 16 1017.7R


STATION/POSITION TIME  TEMP    WIND        PRES    WAVE   SWELL
                       AIR SEA DIR/SP/G            HT/PER HT/PER/DIR
                 (UTC) (F)     (DEG/KT/KT) (MB)    (FT/S) (FT/S/D)
5E ST. MARYS GA  1101      85                N/A     4/ 7
FRYING PAN BUOY  1100   82 84   40/ 10/ 14 1018.4R
BUOY 41025       1050   82 84   80/  4/  6 1019.2R   3/ 8   3/100/ 8
CAPE LOOKOUT NC  1100   80      30/  8/ 10 1018.9R
BUOY 41002       1050   82 84   60/ 12/ 14 1017.3R   4/ 9   3/120/ 9
BUOY 41010       NOT AVBL
ST AUGUSTINE FL  1100   81 83   70/ 12/ 14 1017.3S


$$




USA.gov is the U.S. government's official web portal to all federal, state and local government web resources and services.